Location: Brantley
(31.5822°N, 86.2569°W)
Time: 17:27:54
(UTC+00:00)

Injun/Solrad 3 - Pass Details

Date: 20 February 2026
Orbit: 871 x 985 km, 66.8° (Epoch: 11 March)

Event Time Altitude Azimuth Distance (km) Brightness Sun altitude
Rises 14:43:41 0° 168° (SSE) 3,444 11.5 27.0°
Reaches altitude 10° 14:46:43 10° 153° (SSE) 2,508 11.3 27.5°
Maximum altitude 14:50:57 21° 105° (ESE) 1,845 11.2 28.3°
Drops below altitude 10° 14:55:12 10° 58° (ENE) 2,533 10.6 29.0°
Sets 14:58:16 0° 43° (NE) 3,488 11.0 29.5°
